Location: *
(32.3300°N, 34.8500°E)
Time: 21:03:18
(UTC+00:00)

PSLV R/B - Pass Details

Date: 22 October 2019
Orbit: 503 x 581 km, 97.8° (Epoch: 11 November)

Event Time Altitude Azimuth Distance (km) Brightness Sun altitude
Rises 02:53:14 0° 3° (N) 2,606 7.3 -12.5°
Reaches altitude 10° 02:55:23 10° 357° (N) 1,716 6.3 -12.1°
Maximum altitude 02:58:53 43° 285° (WNW) 715 3.9 -11.3°
Drops below altitude 10° 03:02:23 10° 213° (SSW) 1,714 6.1 -10.6°
Sets 03:04:32 0° 206° (SSW) 2,601 7.1 -10.1°
